Regional Weather Roundup
Issued by NWS

Home | Current Version | Previous Version | Text Only | Print | Product List | Glossary On
Versions: 1 2 3 4 5 6 7 8 9 10 11 12 13 14 15 16 17 18 19 20 21 22 23 24 25 26 27
000
ASUS45 KBOU 282210
RWRCO

WEATHER ROUNDUP FOR COLORADO
NATIONAL WEATHER SERVICE DENVER/BOULDER CO
400 PM MDT WED SEP 28 2016

NOTE: "FAIR" INDICATES FEW OR NO CLOUDS BELOW 12000 FEET WITH NO
SIGNIFICANT WEATHER AND/OR OBSTRUCTIONS TO VISIBILITY.

COZ001>005-013-030-031-282300-
...NORTHWEST COLORADO...

CITY           SKY/WX    TMP DP  RH WIND       PRES   REMARKS
CRAIG          FAIR      83  28  13 W8        30.26F
HAYDEN         FAIR      75  32  20 W9        30.29S
MEEKER         FAIR      79  29  16 VRB3      30.26F
MOUNT WERNER   NOT AVBL
STEAMBOAT SPGS FAIR      80  29  16 NE3       30.29S
WALDEN           N/A     73  18  12 NW6       30.41S
$$

COZ006>008-011-282300-
...WEST CENTRAL VALLEYS...

CITY           SKY/WX    TMP DP  RH WIND       PRES   REMARKS
GRAND JUNCTION FAIR      83  37  19 W8        30.16F
MONTROSE       FAIR      80  35  19 VRB6      30.23F
EAGLE          MOSUNNY   81  28  15 NW5       30.28F
RIFLE          FAIR      83  35  18 W10       30.19F
DELTA          NOT AVBL
NUCLA          FAIR      79  32  18 CALM      30.28S
$$

COZ017>023-064>068-282300-
...SOUTHWEST COLORADO...

CITY           SKY/WX    TMP DP  RH WIND       PRES   REMARKS
DURANGO        FAIR      75  29  18 S10       30.32S
CORTEZ         FAIR      81  34  18 S12G24    30.26S
PAGOSA SPRINGS FAIR      74  20  13 S9        30.38S
TELLURIDE      FAIR      69  26  19 SW12G24   30.47S
WOLF CREEK PAS FAIR      52  28  40 SW8G18    30.71S
$$

COZ009-010-012-014-032>034-037-058>063-282300-
...CENTRAL COLORADO...

CITY           SKY/WX    TMP DP  RH WIND       PRES   REMARKS
ASPEN          FAIR      75  26  16 N3        30.34F
BUENA VISTA    FAIR      73  21  14 CALM      30.42S
COPPER MTN     PTSUNNY   61  16  17 SE15      30.69S
BERTHOUD PASS  FAIR      45  32  61 E26G38    30.73S
COTTONWOOD PAS FAIR      68  16  13 E14G21    30.55F
GUNNISON       FAIR      77  25  14 E14G22    30.36R HAZE
KREMMLING      FAIR      77  14   9 CALM      30.34F
LEADVILLE      FAIR      64  15  15 S12G21    30.52S
MONARCH PASS   FAIR      50  23  34 E14       30.80S
SALIDA         FAIR      77  23  13 E14G22    30.45F
SUNLIGHT       PTSUNNY   59  32  36 W3        30.62S
WILKERSON PASS FAIR      61  19  20 SW6       30.70R
$$

COZ069>075-282300-
...SAN LUIS VALLEY/SANGRE DE CRISTO MOUNTAINS...

CITY           SKY/WX    TMP DP  RH WIND       PRES   REMARKS
ALAMOSA        FAIR      76  24  14 S9        30.38S
LA VETA PASS   FAIR      61  28  29 MISG      30.60S
SAGUACHE       NOT AVBL
$$

COZ035-036-038>040-282300-
...NORTHERN COLORADO FRONT RANGE...

CITY           SKY/WX    TMP DP  RH WIND       PRES   REMARKS
DENVER INTL AP FAIR      81  28  14 E10       30.29F
DMNS CITY PARK   N/A     81  27  14 NE6G15    30.27S
AURORA         MOSUNNY   81  28  14 E12       30.30F
FRONT RANGE AP MOSUNNY   82  27  13 E9G21     30.31F
ERIE MUNI ARPT FAIR      82  23  11 SE3       30.27F
BOULDER MUN AP FAIR      81  30  16 N3        30.28F
CENTENNIAL     FAIR      81  27  14 NE12G21   30.30F
BROOMFIELD     MOSUNNY   81  28  15 CALM      30.31F
FORT COLLINS   FAIR      81  34  18 E10G17    30.25F
LONGMONT       FAIR      84  30  14 NE3       30.29F
$$

COZ041-046-047-076>085-087-088-282300-
...PIKES PEAK/PALMER DIVIDE AND SOUTHERN FOOTHILLS...

CITY           SKY/WX    TMP DP  RH WIND       PRES   REMARKS
COLO. SPRINGS  FAIR      78  28  16 SE13G23   30.36S
A. F. ACADEMY  FAIR      76  28  16 S12G17    30.36S
SCHRIEVER AFB  NOT AVBL
ELLICOTT       NOT AVBL
FALCON         FAIR      75  24  14 S8        30.41S
FORT CARSON    FAIR      79  28  15 E10G16    30.33S
LIMON          FAIR      79  30  16 MISG      30.31S
MONUMENT HILL  FAIR      73  27  17 S6G18     30.41S
TRINIDAD       FAIR      81  28  14 E9        30.31S
$$

COZ042>045-048>051-090-091-282300-
...NORTHEAST COLORADO...

CITY           SKY/WX    TMP DP  RH WIND       PRES   REMARKS
GREELEY ARPT   FAIR      81  36  19 SE13      30.28S
AKRON          FAIR      80  35  19 CALM      30.28F
BURLINGTON     FAIR      82  34  17 NE5       30.26S
WRAY           NOT AVBL
STERLING       FAIR      81  41  24 E7        30.25S
HOLYOKE        FAIR      84  34  16 NE8       30.25S HAZE
FORT MORGAN    FAIR      82  29  14 E6        30.29S
$$

COZ086-089-092>099-282300-
...SOUTHEAST COLORADO...

CITY           SKY/WX    TMP DP  RH WIND       PRES   REMARKS
PUEBLO         FAIR      85  31  14 E14       30.25S
LA JUNTA       FAIR      86  34  15 SE9       30.24R
LAMAR          FAIR      87  31  13 CALM      30.20R
SPRINGFIELD      N/A     83  34  17 NE8G16    30.24S
$$




USA.gov is the U.S. government's official web portal to all federal, state and local government web resources and services.